Weather History for Naples, FL

Change the Weather History Date:

Monday, November 12, 2012

  Actual Average Record
Temperature  
Mean Temperature 73 °F 73 °F  
Max Temperature 81 °F 82 °F 89 °F (1948)
Min Temperature 64 °F 64 °F 43 °F (1962)
Degree Days  
Heating Degree Days 0 0  
Month to date heating degree days 3 0  
Since 1 July heating degree days 4 1  
Cooling Degree Days 8 8  
Month to date cooling degree days 54 108  
Year to date cooling degree days 3895 3703  
Growing Degree Days 22 (Base 50)    
Moisture  
Dew Point 66 °F    
Average Humidity 81    
Maximum Humidity 100    
Minimum Humidity 62    
Precipitation  
Precipitation T in 0.05 in 0.25 in (1980)
Month to date precipitation 0.12 1.05  
Year to date precipitation 36.15 49.45  
Snow  
Snow 0.00 in - - ()
Month to date snowfall 0.0  
Since 1 July snowfall 0.0  
Since 1 September snowfall 0.0  
Snow Depth 0.00 in    
Sea Level Pressure  
Sea Level Pressure 30.16 in    
Wind  
Wind Speed 7 mph (NE)    
Max Wind Speed 20 mph    
Max Gust Speed 24 mph    
Visibility 10 miles    
Events Rain    
T = Trace of Precipitation, MM = Missing Value Source: NWS Daily Summary

Daily Weather History Graph

Daily Weather History Graph

Search for Another Location

Airport:

Trip Planner

Search our weather history database for the weather conditions in past years. The results will help you decide how hot, cold, wet, or windy it might be!

Date:

Astronomy

Nov. 12, 2012 Rise Set
Actual Time 6:43 AM EST 5:38 PM EST
Civil Twilight 6:19 AM EST 6:02 PM EST
Nautical Twilight 5:51 AM EST 6:30 PM EST
Astronomical Twilight 5:24 AM EST 6:58 PM EST
Moon 5:12 AM EST (11/12) 4:40 PM EST (11/12)
Length of Visible Light 11h 43m
Length of Day
10h 54m
Waning Crescent, 2% of the Moon is Illuminated
Nov 12
Waning Crescent
Nov 13
New
Nov 20
First Quarter
Nov 28
Full
Dec 6
Last Quarter

Hourly Weather History & Observations

Time (EST) Temp. Heat Index Dew Point Humidity Pressure Visibility Wind Dir Wind Speed Gust Speed Precip Events Conditions
1:53 AM 66.0 °F - 63.0 °F 90% 30.17 in 10.0 mi ENE 5.8 mph - N/A   Mostly Cloudy
2:53 AM 64.0 °F - 63.0 °F 96% 30.15 in 10.0 mi ENE 6.9 mph - N/A   Clear
3:53 AM 64.0 °F - 64.0 °F 100% 30.15 in 10.0 mi NE 5.8 mph - N/A   Clear
4:53 AM 64.9 °F - 64.0 °F 97% 30.15 in 10.0 mi NNE 4.6 mph - N/A   Clear
5:53 AM 64.0 °F - 64.0 °F 100% 30.16 in 10.0 mi NE 4.6 mph - N/A   Clear
6:53 AM 64.9 °F - 64.0 °F 97% 30.17 in 9.0 mi NE 4.6 mph - N/A   Scattered Clouds
7:53 AM 68.0 °F - 64.9 °F 90% 30.18 in 9.0 mi ENE 5.8 mph - N/A   Mostly Cloudy
8:53 AM 73.0 °F - 66.0 °F 79% 30.19 in 10.0 mi ENE 10.4 mph - N/A   Scattered Clouds
9:53 AM 78.1 °F - 66.9 °F 68% 30.20 in 10.0 mi ENE 11.5 mph - N/A   Partly Cloudy
10:53 AM 79.0 °F - 66.9 °F 66% 30.20 in 10.0 mi ENE 10.4 mph - N/A   Scattered Clouds
11:53 AM 79.0 °F - 66.9 °F 66% 30.18 in 10.0 mi ENE 11.5 mph - N/A   Mostly Cloudy
12:15 PM 75.2 °F - 69.8 °F 83% 30.18 in 10.0 mi East 13.8 mph 21.9 mph 0.00 in Rain Light Rain
12:32 PM 75.2 °F - 69.8 °F 83% 30.17 in 10.0 mi East 11.5 mph - 0.00 in   Mostly Cloudy
12:53 PM 79.0 °F - 70.0 °F 74% 30.16 in 10.0 mi ENE 11.5 mph - 0.00 in   Scattered Clouds
1:53 PM 80.1 °F 82.3 °F 66.9 °F 64% 30.13 in 10.0 mi East 16.1 mph - N/A   Partly Cloudy
2:53 PM 79.0 °F - 66.0 °F 64% 30.12 in 10.0 mi NE 10.4 mph - N/A   Overcast
3:53 PM 78.1 °F - 64.9 °F 64% 30.12 in 10.0 mi ENE 10.4 mph - N/A   Overcast
4:53 PM 77.0 °F - 66.0 °F 69% 30.12 in 10.0 mi NE 5.8 mph - N/A   Overcast
5:53 PM 75.9 °F - 66.0 °F 71% 30.13 in 10.0 mi NNE 4.6 mph - N/A   Overcast
6:53 PM 75.0 °F - 66.0 °F 73% 30.14 in 10.0 mi NNE 4.6 mph - N/A   Overcast
7:53 PM 73.0 °F - 66.0 °F 79% 30.15 in 10.0 mi NNE 3.5 mph - N/A   Partly Cloudy
8:53 PM 72.0 °F - 66.9 °F 84% 30.15 in 10.0 mi NE 5.8 mph - N/A   Scattered Clouds
9:53 PM 70.0 °F - 66.0 °F 87% 30.15 in 10.0 mi ENE 6.9 mph - N/A   Clear
10:53 PM 69.1 °F - 66.0 °F 90% 30.15 in 10.0 mi NE 4.6 mph - N/A   Clear
11:53 PM 69.1 °F - 66.0 °F 90% 30.14 in 10.0 mi NNE 4.6 mph - N/A   Clear